VR2MW-X Weather Reports


time (UTC)temp
C
wind
direction
speed
KPH
gust
KPH
rain 1hr
cm
rain 24hr
cm
rain mn
cm
humidity
%
barometer
mb
20260508050907 28 0.0 0.0 0.00 0.00 0.00 74 1012.0
20260508045856 28 0.0 0.0 0.00 0.00 0.00 74 1012.1
20260508044846 28 0.0 0.0 0.00 0.00 0.00 72 1012.1
20260508043835 30 0.0 0.0 0.00 0.00 0.00 70 1012.2
20260508042824 30 0.0 0.0 0.00 0.00 0.00 70 1012.5
20260508041814 30 0.0 0.0 0.00 0.00 0.00 67 1012.5
20260508040802 30 0.0 0.0 0.00 0.00 0.00 71 1012.5
20260508035752 30 0.0 0.0 0.00 0.00 0.00 69 1012.6
20260508034742 28 0.0 0.0 0.00 0.00 0.00 71 1012.7
20260508033731 28 0.0 0.0 0.00 0.00 0.00 69 1012.8
20260508032720 -17 0.0 0.0 0.00 0.00 0.00
20260508031710 27 0.0 0.0 0.00 0.00 0.00 76 1013.3
20260508030659 27 0.0 0.0 0.00 0.00 0.00 78 1013.5
20260508025649 27 0.0 0.0 0.00 0.00 0.00 80 1013.6
20260508024639 27 0.0 0.0 0.00 0.00 0.00 73 1013.7
20260508023628 27 0.0 0.0 0.00 0.00 0.00 74 1013.8
20260508022618 27 0.0 0.0 0.00 0.00 0.00 74 1014.0
20260508021607 27 0.0 0.0 0.00 0.00 0.00 72 1014.0
20260508020556 27 0.0 0.0 0.00 0.00 0.00 73 1014.0
20260508015546 27 0.0 0.0 0.00 0.00 0.00 73 1014.0
20260508014535 27 0.0 0.0 0.00 0.00 0.00 74 1014.0
20260508013524 27 0.0 0.0 0.00 0.00 0.00 74 1014.1
20260508012513 27 0.0 0.0 0.00 0.00 0.00 73 1013.8
20260508011500 27 0.0 0.0 0.00 0.00 0.00 75 1013.6
20260508010448 27 0.0 0.0 0.00 0.00 0.00 74 1013.6
20260508005437 27 0.0 0.0 0.00 0.00 0.00 73 1013.6
20260508004426 27 0.0 0.0 0.00 0.00 0.00 76 1013.6
20260508003415 27 0.0 0.0 0.00 0.00 0.00 79 1013.6
20260508002405 -17 0.0 0.0 0.00 0.00 0.00
20260508001355 26 0.0 0.0 0.00 0.00 0.00 81 1013.6
20260508000343 26 0.0 0.0 0.00 0.00 0.00 81 1013.6
20260507235333 26 0.0 0.0 0.00 0.00 0.00 84 1013.3
20260507234322 25 0.0 0.0 0.00 0.00 0.00 88 1013.2
20260507233312 23 0.0 0.0 0.00 0.00 0.00 89 1013.2
20260507232301 23 0.0 0.0 0.00 0.00 0.00 91 1013.2
20260507231248 23 0.0 0.0 0.00 0.00 0.00 92 1013.1
20260507230238 23 0.0 0.0 0.00 0.00 0.00 93 1013.1
20260507225227 22 0.0 0.0 0.00 0.00 0.00 94 1013.1
20260507224217 22 0.0 0.0 0.00 0.00 0.00 94 1012.6
20260507223206 22 0.0 0.0 0.00 0.00 0.00 94 1012.5
20260507222156 22 0.0 0.0 0.00 0.00 0.00 94 1012.5
20260507221145 22 0.0 0.0 0.00 0.00 0.00 94 1012.5
20260507220135 -17 0.0 0.0 0.00 0.00 0.00
20260507215125 22 0.0 0.0 0.00 0.00 0.00 93 1012.1
20260507214114 22 0.0 0.0 0.00 0.00 0.00 92 1012.1
20260507213104 22 0.0 0.0 0.00 0.00 0.00 93 1012.1
20260507212053 22 0.0 0.0 0.00 0.00 0.00 93 1011.8
20260507211041 22 0.0 0.0 0.00 0.00 0.00 92 1011.8
20260507210031 22 0.0 0.0 0.00 0.00 0.00 92 1011.6
20260507205020 22 0.0 0.0 0.00 0.00 0.00 92 1011.3
20260507204009 22 0.0 0.0 0.00 0.00 0.00 92 1011.2
20260507202956 22 0.0 0.0 0.00 0.00 0.00 92 1011.2
20260507201945 22 0.0 0.0 0.00 0.00 0.00 93 1011.2
20260507200935 22 0.0 0.0 0.00 0.00 0.00 93 1011.1
20260507195924 22 0.0 0.0 0.00 0.00 0.00 92 1011.1
20260507194913 22 0.0 0.0 0.00 0.00 0.00 92 1011.1
20260507193902 22 0.0 0.0 0.00 0.00 0.00 93 1011.1
20260507192852 22 0.0 0.0 0.00 0.00 0.00 92 1011.1
20260507191841 22 0.0 0.0 0.00 0.00 0.00 91 1011.2
20260507190831 22 0.0 0.0 0.00 0.00 0.00 91 1011.3
20260507185820 23 0.0 0.0 0.00 0.00 0.00 91 1011.6
20260507184810 23 0.0 0.0 0.00 0.00 0.00 90 1011.6
20260507183758 23 0.0 0.0 0.00 0.00 0.00 90 1011.6
20260507182747 -17 0.0 0.0 0.00 0.00 0.00
20260507181737 23 0.0 0.0 0.00 0.00 0.00 91 1011.8
20260507180727 23 0.0 0.0 0.00 0.00 0.00 90 1012.1
20260507175716 23 0.0 0.0 0.00 0.00 0.00 90 1012.1
20260507174706 23 0.0 0.0 0.00 0.00 0.00 90 1012.1
20260507173655 23 0.0 0.0 0.00 0.00 0.00 89 1012.1
20260507172644 -17 0.0 0.0 0.00 0.00 0.00
20260507171634 23 0.0 0.0 0.00 0.00 0.00 88 1012.2
20260507170624 23 0.0 0.0 0.00 0.00 0.00 88 1012.2
20260507165613 23 0.0 0.0 0.00 0.00 0.00 88 1012.5
20260507164603 23 0.0 0.0 0.00 0.00 0.00 88 1012.5
20260507163552 23 0.0 0.0 0.00 0.00 0.00 87 1012.5
20260507162542 23 0.0 0.0 0.00 0.00 0.00 87 1012.5
20260507161531 23 0.0 0.0 0.00 0.00 0.00 87 1012.6
20260507160521 23 0.0 0.0 0.00 0.00 0.00 86 1012.5
20260507155509 23 0.0 0.0 0.00 0.00 0.00 85 1012.5
20260507154455 23 0.0 0.0 0.00 0.00 0.00 86 1012.5
20260507153444 23 0.0 0.0 0.00 0.00 0.00 86 1012.6
20260507152434 23 0.0 0.0 0.00 0.00 0.00 85 1012.6
20260507151424 23 0.0 0.0 0.00 0.00 0.00 85 1012.6
20260507150413 23 0.0 0.0 0.00 0.00 0.00 86 1012.7
20260507145401 23 0.0 0.0 0.00 0.00 0.00 86 1012.6
20260507144351 23 0.0 0.0 0.00 0.00 0.00 86 1012.6
20260507143340 23 0.0 0.0 0.00 0.00 0.00 86 1012.5
20260507142329 23 0.0 0.0 0.00 0.00 0.00 86 1012.5
20260507141319 23 0.0 0.0 0.00 0.00 0.00 86 1012.1
20260507140308 23 0.0 0.0 0.00 0.00 0.00 86 1012.1
20260507135257 23 0.0 0.0 0.00 0.00 0.00 85 1011.8
20260507134247 25 0.0 0.0 0.00 0.00 0.00 85 1011.8
20260507133235 25 0.0 0.0 0.00 0.00 0.00 86 1011.6
20260507132225 25 0.0 0.0 0.00 0.00 0.00 85 1011.6
20260507131214 25 0.0 0.0 0.00 0.00 0.00 86 1011.3
20260507130203 25 0.0 0.0 0.00 0.00 0.00 85 1011.3
20260507125153 25 0.0 0.0 0.00 0.00 0.00 84 1011.2
20260507124143 25 0.0 0.0 0.00 0.00 0.00 84 1011.1
20260507123132 25 0.0 0.0 0.00 0.00 0.00 83 1011.1
20260507122122 25 0.0 0.0 0.00 0.00 0.00 83 1011.0
20260507121111 26 0.0 0.0 0.00 0.00 0.00 83 1011.0
20260507120100 26 0.0 0.0 0.00 0.00 0.00 83 1010.7
20260507115049 26 0.0 0.0 0.00 0.00 0.00 81 1010.6
20260507114039 26 0.0 0.0 0.00 0.00 0.00 80 1010.1
20260507113028 26 0.0 0.0 0.00 0.00 0.00 78 1010.1
20260507112018 26 0.0 0.0 0.00 0.00 0.00 79 1010.1
20260507111006 26 0.0 0.0 0.00 0.00 0.00 77 1010.1
20260507105953 27 0.0 0.0 0.00 0.00 0.00 76 1010.1
20260507104942 27 0.0 0.0 0.00 0.00 0.00 75 1010.1
20260507103931 27 0.0 0.0 0.00 0.00 0.00 73 1010.0
20260507102920 27 0.0 0.0 0.00 0.00 0.00 72 1009.8
20260507101910 -17 0.0 0.0 0.00 0.00 0.00
20260507100859 27 0.0 0.0 0.00 0.00 0.00 72 1009.7
20260507095849 27 0.0 0.0 0.00 0.00 0.00 71 1009.6
20260507094838 27 0.0 0.0 0.00 0.00 0.00 71 1009.6
20260507093827 27 0.0 0.0 0.00 0.00 0.00 74 1009.6
20260507092817 27 0.0 0.0 0.00 0.00 0.00 72 1009.6
20260507091806 27 0.0 0.0 0.00 0.00 0.00 72 1009.6
20260507090756 27 0.0 0.0 0.00 0.00 0.00 69 1009.6
20260507085745 28 0.0 0.0 0.00 0.00 0.00 67 1009.6
20260507084735 30 0.0 0.0 0.00 0.00 0.00 67 1009.6
20260507083724 30 0.0 0.0 0.00 0.00 0.00 66 1009.6
20260507082714 30 0.0 0.0 0.00 0.00 0.00 64 1009.5
20260507081704 30 0.0 0.0 0.00 0.00 0.00 63 1009.6
20260507080653 30 0.0 0.0 0.00 0.00 0.00 64 1009.8
20260507075643 30 0.0 0.0 0.00 0.00 0.00 64 1009.8
20260507074632 -17 0.0 0.0 0.00 0.00 0.00
20260507073622 30 0.0 0.0 0.00 0.00 0.00 63 1010.1
20260507072610 30 0.0 0.0 0.00 0.00 0.00 65 1010.1
20260507071558 31 0.0 0.0 0.00 0.00 0.00 60 1010.1
20260507070546 30 0.0 0.0 0.00 0.00 0.00 64 1010.1
20260507065535 30 0.0 0.0 0.00 0.00 0.00 62 1010.2
20260507064523 31 0.0 0.0 0.00 0.00 0.00 62 1010.5
20260507063512 30 0.0 0.0 0.00 0.00 0.00 63 1010.6
20260507062502 30 0.0 0.0 0.00 0.00 0.00 62 1010.6
20260507061451 31 0.0 0.0 0.00 0.00 0.00 62 1010.7
20260507060439 31 0.0 0.0 0.00 0.00 0.00 63 1010.8
20260507055428 30 0.0 0.0 0.00 0.00 0.00 63 1011.0
20260507054418 30 0.0 0.0 0.00 0.00 0.00 66 1011.1
20260507053407 30 0.0 0.0 0.00 0.00 0.00 64 1011.1
20260507052356 30 0.0 0.0 0.00 0.00 0.00 63 1011.2
20260507051346 30 0.0 0.0 0.00 0.00 0.00 63 1011.1